EW6143 Weather Reports


time (UTC)temp
C
wind
direction
speed
KPH
gust
KPH
rain 1hr
cm
rain 24hr
cm
rain mn
cm
humidity
%
barometer
mb
20260831060042 28 0 0.0 1.6 0.00 0.00 0.00 59 1014.5
20260831054543 28 0 0.0 1.6 0.00 0.00 0.00 59 1014.7
20260831053044 28 0 0.0 1.6 0.00 0.00 0.00 59 1014.6
20260831051539 28 0 0.0 0.0 0.00 0.00 0.00 58 1014.5
20260831050037 28 0 0.0 0.0 0.00 0.00 0.00 57 1014.4
20260831044546 29 0 0.0 0.0 0.00 0.00 0.00 55 1014.4
20260831043037 30 0 0.0 0.0 0.00 0.00 0.00 54 1014.4
20260831041540 30 0 0.0 0.0 0.00 0.00 0.00 53 1014.3
20260831040035 30 0 0.0 0.0 0.00 0.00 0.00 52 1014.3
20260831034534 30 0 0.0 0.0 0.00 0.00 0.00 51 1014.0
20260831033040 30 0 0.0 0.0 0.00 0.00 0.00 50 1014.1
20260831031537 31 0 0.0 0.0 0.00 0.00 0.00 49 1014.1
20260831030035 31 0 0.0 0.0 0.00 0.00 0.00 47 1014.0
20260831024535 32 0 0.0 0.0 0.00 0.00 0.00 46 1013.8
20260831023035 32 0 0.0 3.2 0.00 0.00 0.00 45 1013.7
20260831021545 32 0 0.0 3.2 0.00 0.00 0.00 44 1013.5
20260831020037 32 0 0.0 1.6 0.00 0.00 0.00 42 1013.3
20260831014537 33 0 0.0 3.2 0.00 0.00 0.00 41 1013.2
20260831013040 33 284 1.6 6.4 0.00 0.00 0.00 40 1012.9
20260831011544 34 281 1.6 4.8 0.00 0.00 0.00 39 1012.7
20260831010044 35 287 1.6 6.4 0.00 0.00 0.00 38 1012.6
20260831004534 35 299 1.6 9.7 0.00 0.00 0.00 36 1012.5
20260831003037 35 285 1.6 9.7 0.00 0.00 0.00 36 1012.5
20260831001539 36 327 4.8 14.5 0.00 0.00 0.00 35 1012.5
20260831000039 36 293 6.4 14.5 0.00 0.00 0.00 35 1012.6
20260830234535 36 254 4.8 12.9 0.00 0.00 0.00 34 1012.8
20260830233037 36 330 8.0 17.7 0.00 0.00 0.00 34 1012.9
20260830231537 36 330 6.4 17.7 0.00 0.00 0.00 34 1012.8
20260830230035 36 355 3.2 17.7 0.00 0.00 0.00 35 1013.0
20260830224538 37 308 8.0 19.3 0.00 0.00 0.00 33 1013.0
20260830223036 37 245 11.3 22.5 0.00 0.00 0.00 33 1013.1
20260830221536 37 340 4.8 17.7 0.00 0.00 0.00 34 1013.0
20260830220040 37 324 3.2 17.7 0.00 0.00 0.00 33 1013.1
20260830214538 37 287 11.3 19.3 0.00 0.00 0.00 32 1013.1
20260830213034 37 351 8.0 19.3 0.00 0.00 0.00 30 1013.3
20260830211538 37 289 6.4 22.5 0.00 0.00 0.00 31 1013.4
20260830210037 37 346 9.7 17.7 0.00 0.00 0.00 33 1013.6
20260830204537 37 343 8.0 17.7 0.00 0.00 0.00 33 1013.9
20260830203037 37 287 6.4 17.7 0.00 0.00 0.00 34 1014.2
20260830201535 37 336 9.7 20.9 0.00 0.00 0.00 34 1014.3
20260830200035 37 274 8.0 22.5 0.00 0.00 0.00 36 1014.6
20260830194545 37 286 11.3 22.5 0.00 0.00 0.00 36 1014.9
20260830193034 36 303 8.0 22.5 0.00 0.00 0.00 39 1015.0
20260830191533 37 294 9.7 25.7 0.00 0.00 0.00 37 1015.3
20260830190035 36 243 8.0 27.4 0.00 0.00 0.00 39 1015.3
20260830184535 36 314 9.7 24.1 0.00 0.00 0.00 39 1015.5
20260830183036 36 309 6.4 20.9 0.00 0.00 0.00 40 1015.5
20260830181536 36 330 11.3 24.1 0.00 0.00 0.00 41 1016.0
20260830180037 36 352 8.0 24.1 0.00 0.00 0.00 42 1016.2
20260830174634 35 15 8.0 24.1 0.00 0.00 0.00 43 1016.3
20260830173036 35 287 11.3 20.9 0.00 0.00 0.00 44 1016.6
20260830171536 35 327 9.7 19.3 0.00 0.00 0.00 45 1016.9
20260830170035 34 5 9.7 17.7 0.00 0.00 0.00 47 1017.0
20260830164536 34 277 6.4 20.9 0.00 0.00 0.00 47 1017.1
20260830163045 33 300 8.0 20.9 0.00 0.00 0.00 49 1017.3
20260830161542 33 348 8.0 16.1 0.00 0.00 0.00 50 1017.4
20260830160034 33 348 8.0 16.1 0.00 0.00 0.00 51 1017.3
20260830154538 32 360 4.8 20.9 0.00 0.00 0.00 54 1017.2
20260830153037 32 325 4.8 16.1 0.00 0.00 0.00 56 1017.3
20260830151545 31 9 6.4 14.5 0.00 0.00 0.00 60 1017.4
20260830150036 30 294 4.8 12.9 0.00 0.00 0.00 61 1017.3
20260830144537 30 355 3.2 9.7 0.00 0.00 0.00 62 1017.4
20260830143033 29 350 3.2 11.3 0.00 0.00 0.00 65 1017.4
20260830141534 28 355 3.2 11.3 0.00 0.00 0.00 67 1017.6
20260830140038 28 318 4.8 14.5 0.00 0.00 0.00 68 1017.5
20260830134537 27 306 6.4 12.9 0.00 0.00 0.00 69 1017.4
20260830133033 27 338 4.8 12.9 0.00 0.00 0.00 70 1017.3
20260830131535 27 296 4.8 11.3 0.00 0.00 0.00 72 1017.2
20260830130051 26 310 3.2 6.4 0.00 0.00 0.00 73 1017.1
20260830124542 26 0 1.6 6.4 0.00 0.00 0.00 73 1016.8
20260830123038 25 303 3.2 6.4 0.00 0.00 0.00 73 1016.6
20260830121536 25 319 1.6 4.8 0.00 0.00 0.00 72 1016.3
20260830120035 25 0 0.0 0.0 0.00 0.00 0.00 71 1016.2
20260830114537 25 0 0.0 3.2 0.00 0.00 0.00 70 1016.0
20260830113040 26 331 0.0 0.0 0.00 0.00 0.00 68 1015.8
20260830111534 26 0 0.0 3.2 0.00 0.00 0.00 66 1015.6
20260830110043 26 0 0.0 0.0 0.00 0.00 0.00 64 1015.6
20260830104538 26 0 0.0 3.2 0.00 0.00 0.00 62 1015.4
20260830103034 26 287 0.0 4.8 0.00 0.00 0.00 61 1015.4
20260830101533 27 287 0.0 3.2 0.00 0.00 0.00 59 1015.3
20260830100033 27 0 0.0 6.4 0.00 0.00 0.00 58 1015.2
20260830094535 27 286 0.0 6.4 0.00 0.00 0.00 57 1015.3
20260830093032 27 283 1.6 4.8 0.00 0.00 0.00 55 1015.3
20260830091535 27 277 4.8 9.7 0.00 0.00 0.00 54 1015.4
20260830090034 28 314 1.6 11.3 0.00 0.00 0.00 54 1015.4
20260830084540 28 276 4.8 11.3 0.00 0.00 0.00 53 1015.3
20260830083040 28 284 3.2 11.3 0.00 0.00 0.00 53 1015.6
20260830081537 28 277 4.8 12.9 0.00 0.00 0.00 53 1015.3
20260830080040 28 285 3.2 12.9 0.00 0.00 0.00 52 1015.2
20260830074540 29 258 4.8 11.3 0.00 0.00 0.00 52 1015.4
20260830073036 29 272 0.0 9.7 0.00 0.00 0.00 52 1015.5
20260830071554 30 297 4.8 12.9 0.00 0.00 0.00 50 1015.4
20260830070036 30 282 4.8 14.5 0.00 0.00 0.00 49 1015.5
20260830064534 30 240 6.4 19.3 0.00 0.00 0.00 48 1015.5
20260830063037 30 269 6.4 19.3 0.00 0.00 0.00 47 1015.5
20260830061533 30 281 8.0 16.1 0.00 0.00 0.00 47 1015.5